Theta_e
339 338 337 336 337 336 334 334 331 328 325 323 325 327 327 330 332 331 330 330 328 324 318 314 315 313 314 317 319 320 319 320 321 321 321 320 320 320 319 320 322 323 324 324 325 326 327 327 327 327 326 326 326 325 325 326 327 326 326 328 329 328 327 327 328 327 325 323 321 322 325 325 326 326 326 326 326 326 327 326 327 327 327 327 326
339 338 337 336 335 333 334 333 330 327 325 324 325 327 328 330 332 331 330 329 328 325 318 314 314 313 315 317 318 318 319 320 320 320 319 318 319 317 316 320 323 324 324 324 324 325 326 326 326 326 326 326 326 326 327 328 328 326 326 327 328 328 328 327 327 327 326 325 324 323 324 324 325 325 325 325 325 326 326 326 327 326 327 327 326
340 338 336 335 334 331 331 332 330 327 325 324 325 327 329 331 332 332 330 329 328 324 317 313 313 313 314 315 317 317 318 318 317 317 316 314 313 311 312 318 323 323 323 323 323 324 324 324 325 324 325 325 326 326 327 328 327 326 326 326 327 327 327 327 327 327 327 327 327 325 324 325 325 325 325 325 325 325 325 326 327 327 326 326 326
340 338 335 334 333 330 329 329 329 328 326 324 323 325 329 330 332 332 330 329 328 321 314 314 313 313 313 314 314 315 316 315 313 312 313 312 310 309 310 313 317 319 320 321 321 322 322 323 323 323 323 323 324 325 326 326 325 325 325 325 326 327 327 327 327 327 327 327 327 326 326 326 326 326 325 325 325 324 324 326 327 326 326 325 325
340 337 334 334 333 332 330 330 329 329 328 325 324 327 329 330 332 331 329 329 325 317 313 314 314 314 313 313 313 313 313 312 310 310 311 311 310 309 309 309 311 314 315 317 318 319 319 318 319 319 320 320 321 322 323 324 324 324 324 324 325 325 326 326 327 327 327 327 327 326 326 326 326 326 326 325 325 324 324 324 324 324 325 325 325
339 337 336 335 335 334 331 330 330 331 330 326 325 328 330 330 331 330 329 328 322 315 313 314 314 314 314 313 313 313 312 310 308 309 309 309 308 308 308 308 310 314 315 316 317 317 315 315 315 316 318 318 319 320 322 323 323 323 323 323 324 325 325 326 326 327 327 327 327 327 326 326 325 325 325 325 326 326 325 325 325 324 324 324 323
338 338 337 337 338 335 331 331 332 332 331 327 325 329 329 330 330 329 328 327 320 314 313 314 315 315 314 313 313 313 312 310 308 307 307 307 307 306 307 308 311 315 316 316 317 317 316 317 318 319 320 320 321 322 322 323 322 320 319 318 320 323 324 324 325 326 326 326 326 326 326 325 325 325 325 325 325 326 326 326 326 325 324 323 323
337 338 338 338 337 334 331 332 333 332 330 327 326 329 330 329 329 328 328 325 318 314 312 314 315 315 313 312 313 314 314 311 308 307 307 306 306 306 306 307 311 314 316 316 317 318 318 319 319 321 322 322 322 322 322 322 320 319 317 313 315 322 324 324 325 325 325 325 325 325 326 326 325 325 325 324 324 325 324 323 323 322 323 324 324
334 336 337 337 336 334 333 333 332 330 328 327 327 330 330 330 329 328 327 323 316 313 312 314 315 314 314 313 315 316 315 313 309 307 307 306 306 306 306 307 309 313 316 316 316 318 318 318 317 319 320 321 321 321 321 320 316 315 313 310 314 322 324 324 325 325 325 326 325 325 324 325 325 324 324 324 324 323 320 319 319 318 320 322 322
332 333 335 335 334 334 333 332 330 328 328 328 329 330 329 328 328 326 327 322 314 312 312 313 315 314 314 315 316 316 314 312 309 307 307 307 306 306 306 306 307 310 313 314 316 318 317 316 316 315 316 318 319 318 316 313 309 307 307 310 317 322 324 324 325 325 325 325 325 325 325 325 325 324 323 323 323 322 318 315 316 317 318 319 320
332 331 332 333 333 332 331 330 329 328 328 329 330 329 327 326 326 326 326 320 313 311 313 314 316 314 314 315 316 315 313 310 309 308 307 307 306 306 305 305 306 307 309 312 315 317 317 315 313 310 309 311 312 310 308 306 304 303 305 311 317 320 320 320 321 323 324 324 324 324 324 324 323 322 322 322 322 322 319 316 315 316 317 318 318
332 332 331 331 331 331 330 330 329 329 328 328 328 328 327 325 326 327 325 319 313 313 315 315 315 314 314 315 316 316 314 310 308 308 307 307 306 306 305 305 306 305 307 310 313 316 316 311 307 305 305 306 306 306 305 305 305 304 305 308 310 311 310 310 311 314 318 321 322 323 323 323 322 321 321 321 320 319 318 317 315 315 316 317 318
331 330 330 329 329 330 330 331 331 330 329 328 328 328 329 327 326 326 323 318 316 317 318 316 313 313 313 315 317 317 315 311 308 308 307 306 306 305 305 305 306 305 306 309 312 314 313 308 305 305 306 305 306 306 306 306 306 305 305 305 306 305 305 305 305 306 309 312 315 317 318 318 317 316 314 313 311 310 309 312 314 315 315 316 317
329 328 328 327 328 328 328 330 332 331 331 330 330 330 330 330 328 326 324 319 317 318 319 317 315 315 315 317 319 319 317 311 308 308 307 307 306 306 305 305 305 305 306 308 311 311 309 306 305 306 306 306 306 306 306 306 305 306 306 306 306 305 305 305 305 305 305 306 306 307 308 308 308 307 306 305 305 305 304 306 309 312 314 315 315
328 328 328 326 327 328 327 330 332 332 332 331 331 331 331 330 328 326 322 317 317 318 316 315 316 318 319 319 319 321 318 311 307 308 307 306 306 306 305 305 306 305 306 307 308 308 306 305 305 305 305 306 306 305 305 305 305 305 305 305 305 305 305 305 305 305 305 305 305 304 304 304 303 303 303 303 303 303 304 304 305 309 312 314 314
327 327 327 326 326 327 328 330 331 332 331 331 331 331 331 330 328 326 322 318 319 317 315 313 314 317 321 321 320 321 318 311 308 308 307 307 306 306 306 306 305 305 305 306 306 306 305 305 305 305 305 305 305 305 305 304 304 304 304 304 304 304 304 304 304 304 304 304 304 303 303 303 303 303 303 303 303 303 303 303 303 307 310 312 312
324 324 325 324 326 327 329 330 330 331 331 331 331 331 331 331 328 325 323 322 322 320 318 316 314 315 319 322 322 322 317 310 308 308 307 307 307 307 307 306 306 306 305 305 305 305 305 305 305 305 306 306 305 305 305 305 304 304 304 304 304 304 304 304 304 303 304 304 304 304 304 304 305 305 305 305 305 304 304 303 303 304 307 311 312
320 322 324 325 326 327 328 329 329 330 330 330 331 331 331 331 329 327 326 324 323 323 323 322 319 317 319 323 323 321 316 311 309 308 307 308 308 308 307 307 306 306 306 306 305 305 305 305 305 305 305 305 305 305 305 305 305 305 305 305 306 305 305 305 305 305 305 305 306 306 306 307 307 307 307 307 306 306 305 304 304 303 304 307 310
320 323 325 326 327 327 327 328 328 328 328 329 330 331 331 331 331 330 328 326 323 323 324 323 322 320 319 322 324 320 315 312 311 309 308 309 309 309 307 307 307 307 306 306 306 306 306 306 306 306 306 306 306 306 306 306 306 305 305 305 306 306 306 306 306 306 306 306 306 306 306 307 307 307 307 307 307 307 306 306 306 305 304 304 305
324 325 326 327 327 327 327 327 327 327 327 328 328 329 331 331 332 330 329 329 326 324 324 324 323 322 320 323 323 317 314 314 313 311 310 309 309 309 307 307 307 307 307 307 306 307 307 307 307 307 307 307 307 307 307 306 306 306 306 306 306 306 305 306 306 306 306 306 306 306 306 306 306 306 306 306 306 307 307 307 307 306 306 306 305
325 326 326 327 326 327 327 326 327 327 328 327 327 328 329 330 330 330 329 328 327 326 325 324 324 323 322 324 322 316 314 316 316 314 311 309 309 309 307 308 309 308 308 308 308 308 308 308 309 309 309 309 309 309 308 308 308 307 307 306 306 306 306 306 306 306 306 306 306 306 306 306 306 307 307 307 307 307 307 307 307 307 306 306 306
324 325 325 325 326 326 326 327 327 328 328 328 328 327 327 327 327 327 327 326 326 326 325 324 324 323 323 324 321 316 314 316 317 317 314 312 312 311 308 310 312 311 312 313 312 312 312 313 313 313 314 314 313 312 311 311 311 310 310 309 308 307 307 306 306 306 306 306 306 306 306 306 307 307 308 308 308 308 308 308 308 308 308 308 307
323 324 324 324 324 325 325 326 326 326 327 327 327 327 327 326 326 326 326 326 326 325 325 325 324 324 324 323 322 319 316 315 317 319 317 315 314 312 308 310 314 315 316 316 316 315 315 316 316 317 318 317 317 316 316 315 315 315 315 314 313 312 310 310 309 308 307 307 308 308 307 307 307 308 308 309 310 311 311 312 312 312 312 312 310
323 324 324 324 324 323 323 324 324 324 324 324 325 325 324 325 325 325 325 325 325 325 325 325 325 324 324 324 323 322 320 316 316 319 319 316 314 310 308 311 315 317 318 318 318 318 318 318 318 318 317 317 317 317 318 318 317 317 317 317 317 316 315 315 314 313 312 310 310 310 309 308 307 308 309 310 311 313 313 314 314 313 313 313 312
323 323 323 323 323 323 323 323 323 323 323 323 324 323 323 324 323 324 324 325 325 325 325 325 325 325 325 324 324 323 321 317 315 319 319 317 314 310 310 314 317 318 319 319 319 319 319 319 318 317 316 315 315 317 318 317 317 318 319 318 318 318 318 318 317 317 316 315 315 314 312 310 309 308 309 311 312 313 314 314 314 313 313 313 312
323 323 323 323 324 323 323 323 323 323 323 323 323 323 323 323 323 324 324 324 325 325 324 324 324 325 325 325 323 322 319 316 316 319 319 318 316 313 312 315 317 318 317 318 319 319 319 319 317 316 315 315 316 317 318 316 316 318 318 318 318 318 318 319 318 318 318 317 317 316 316 314 312 311 311 311 312 313 314 314 314 313 313 313 312
323 323 323 323 323 323 323 323 323 323 322 322 323 323 323 323 323 323 323 323 324 324 324 323 323 325 325 324 322 319 317 316 318 320 319 318 317 315 313 314 316 316 314 314 316 317 318 318 317 314 315 316 316 316 316 316 316 317 318 318 319 319 319 319 318 318 318 318 318 317 317 317 316 315 313 313 313 313 314 314 314 313 313 313 312
322 322 322 323 323 323 322 322 321 320 321 321 322 323 323 323 323 323 322 323 323 323 323 322 322 323 323 323 322 320 317 316 316 318 319 318 318 317 315 313 314 316 315 314 315 315 316 317 317 316 316 316 317 316 316 316 317 318 319 318 318 318 319 319 319 318 318 318 318 317 317 317 317 316 316 315 314 313 314 314 314 313 314 313 312
319 319 320 321 321 321 320 319 318 319 320 320 321 322 322 322 322 322 322 322 322 322 321 320 321 321 322 322 322 321 320 317 316 317 319 319 318 319 318 316 316 316 316 316 315 315 315 315 315 316 317 317 317 317 318 318 318 319 319 318 317 317 317 318 318 318 318 318 318 318 317 317 317 317 316 315 314 313 313 313 312 312 312 312 311
315 315 316 317 318 318 318 317 316 315 315 314 314 315 318 321 320 321 321 321 321 321 320 320 320 320 321 321 321 321 320 319 318 318 318 318 319 319 320 319 318 317 317 317 317 316 316 316 316 316 316 318 318 318 318 318 318 318 318 317 317 317 317 317 317 317 317 317 318 318 318 317 317 317 316 315 314 313 313 313 312 311 311 310 310
312 313 313 313 314 315 316 315 313 312 310 310 309 309 314 319 320 320 321 321 321 321 321 320 320 321 321 321 320 320 320 319 319 318 317 318 319 319 319 319 319 319 318 318 317 317 317 317 317 316 317 318 318 318 319 319 319 319 318 318 317 317 317 317 317 317 317 317 318 318 317 317 317 317 316 315 315 314 313 313 313 311 310 310 310
309 310 311 311 312 312 313 313 312 311 310 309 309 309 311 315 317 317 318 319 319 320 320 320 320 320 320 320 320 320 319 319 319 318 318 318 319 318 318 319 319 318 318 317 315 315 316 316 317 317 318 318 318 319 319 318 318 317 317 318 318 318 319 318 318 318 318 318 318 318 318 317 317 317 316 315 314 314 313 311 310 310 310 310 310
308 308 309 309 309 309 310 310 311 311 310 309 309 309 309 310 311 312 312 313 314 315 316 317 317 316 316 317 318 319 319 319 318 318 318 318 318 318 317 317 316 315 315 314 314 315 315 316 317 317 317 317 318 318 317 316 314 313 313 313 314 315 316 317 318 318 318 319 319 319 318 318 317 317 316 316 315 313 312 310 310 310 310 310 309
307 307 307 307 307 307 307 307 308 308 308 308 308 309 309 309 309 309 309 309 309 309 310 312 311 311 310 312 313 314 315 315 315 315 314 314 314 314 314 314 313 313 314 314 315 315 315 316 316 315 315 315 315 315 314 313 313 312 311 310 308 308 309 310 311 312 313 315 316 316 317 317 317 317 317 317 315 313 311 310 310 310 310 309 308
304 305 306 307 307 306 306 306 307 307 307 307 308 308 308 308 308 308 308 307 307 307 307 309 309 308 307 307 308 309 310 310 310 310 310 311 311 312 312 312 312 312 312 313 313 313 313 313 313 312 311 311 311 311 311 311 312 311 310 307 305 304 304 304 305 306 307 308 309 312 315 316 317 317 317 316 314 312 311 310 310 310 309 308 307
301 302 303 305 305 306 307 307 307 307 307 307 307 307 307 307 308 307 307 306 307 306 306 307 307 307 307 307 306 307 308 308 308 308 308 309 309 310 310 310 309 309 309 309 310 310 310 310 310 309 309 309 309 309 309 309 310 310 309 307 305 304 304 304 304 305 305 306 307 310 314 316 317 316 315 313 312 311 310 310 310 309 309 307 306
300 300 300 301 302 304 305 305 305 306 306 307 307 307 306 306 306 306 306 306 306 306 306 306 306 306 306 307 307 306 307 307 307 307 307 308 308 308 308 308 307 307 306 306 306 305 305 305 305 306 306 307 307 307 308 308 308 309 309 308 307 306 305 304 304 304 305 307 310 312 314 315 315 314 313 311 310 310 309 309 309 308 307 306 306
300 300 300 300 300 301 302 302 302 303 304 305 306 306 306 306 306 305 306 305 305 306 306 306 306 305 306 307 307 307 306 306 306 306 307 307 307 307 307 306 305 304 303 303 302 302 301 301 301 301 302 302 303 304 305 306 307 309 310 310 309 309 307 306 305 304 305 307 310 311 312 313 313 312 310 309 308 308 308 309 308 307 306 305 304
299 299 300 299 299 299 300 300 300 301 302 302 303 304 305 306 306 306 306 306 305 305 305 306 306 306 306 306 306 307 306 306 306 306 306 307 307 307 306 305 304 304 303 303 302 302 302 302 301 301 301 301 301 301 302 303 305 308 309 309 310 310 310 309 308 307 306 306 307 309 311 311 310 309 308 307 308 308 308 308 307 305 305 304 304
299 299 299 299 299 299 299 299 299 300 300 300 301 301 302 303 304 304 305 306 306 306 306 306 306 306 306 306 306 306 306 306 306 306 307 307 307 307 306 305 306 305 304 303 303 303 303 303 302 302 301 301 301 300 300 301 303 306 308 309 310 311 311 310 309 308 307 306 306 307 308 309 309 308 308 308 308 308 307 306 305 304 304 303 303
299 298 299 298 298 298 298 298 299 298 298 298 299 299 300 301 301 302 303 303 304 305 306 306 306 306 306 307 306 306 306 306 306 306 306 306 306 307 307 306 306 306 304 304 304 303 303 303 303 303 302 301 300 300 300 300 302 305 308 309 311 312 311 310 310 309 308 308 307 307 307 307 308 308 308 307 307 306 305 304 304 303 303 303 303
297 298 298 298 298 298 298 298 298 298 298 298 298 298 298 298 299 300 301 301 302 303 303 304 305 306 306 306 306 306 305 305 306 306 306 306 306 306 306 306 306 305 304 304 304 304 304 304 304 304 303 302 301 300 300 301 302 305 308 310 311 311 311 310 309 309 308 308 308 307 307 306 306 306 306 305 305 304 304 303 303 302 302 302 302
297 297 297 297 297 297 297 297 297 297 298 298 298 298 298 298 298 298 299 300 301 301 302 302 303 304 305 305 304 304 304 304 305 305 305 305 305 306 306 306 305 304 304 304 304 304 304 304 304 304 304 303 302 301 301 301 303 306 308 309 310 310 309 309 308 307 307 307 306 306 306 305 305 305 305 304 303 303 302 302 302 302 302 301 300
297 297 297 297 297 297 297 297 297 297 297 297 297 297 297 297 298 298 298 299 299 300 300 301 301 302 303 303 303 303 303 303 304 304 304 304 305 305 305 305 305 305 304 304 304 304 304 304 304 304 304 303 303 302 302 302 303 304 306 307 308 308 307 307 307 306 306 305 305 305 304 304 303 303 303 303 302 302 302 302 301 300 299 297 295
297 297 297 297 297 297 296 296 296 296 297 297 297 297 297 297 297 297 298 298 298 299 299 300 300 301 301 301 302 302 303 303 303 304 304 304 304 305 305 305 305 305 304 304 304 304 304 304 303 303 304 304 304 304 304 304 303 303 304 306 307 306 306 306 306 305 305 305 304 303 303 302 302 302 302 302 302 301 300 299 297 296 294 293 293
296 296 296 296 296 296 296 296 296 296 297 297 297 297 297 297 297 297 297 298 298 298 299 299 300 300 301 301 301 301 302 303 304 304 304 305 305 305 305 305 305 305 305 304 304 304 303 303 303 303 304 304 305 305 305 305 304 303 304 305 306 306 306 306 305 305 304 303 303 302 302 301 301 301 301 300 299 298 296 295 294 293 293 293 293
295 295 295 295 295 295 295 296 296 296 296 297 297 297 297 297 297 297 297 297 297 297 298 298 299 300 300 301 301 301 301 302 303 303 303 304 304 304 304 304 304 304 304 304 304 303 303 303 304 304 303 304 305 306 306 306 305 303 304 305 306 306 306 306 305 304 303 302 302 301 301 301 300 299 299 297 295 294 293 293 293 293 293 293 293
295 295 294 295 295 295 295 295 295 295 295 296 296 297 297 297 297 297 296 296 296 297 297 297 298 299 300 300 301 301 301 302 302 303 303 303 303 303 303 303 303 304 304 304 303 302 302 302 302 302 302 302 304 306 306 305 305 304 304 305 305 305 305 304 303 302 301 301 301 300 299 298 297 295 294 294 293 293 293 293 293 293 293 293 293
293 294 294 294 294 294 294 294 294 294 294 294 295 295 296 297 297 297 297 297 296 296 297 297 297 297 298 299 300 300 301 301 302 303 303 303 303 303 303 303 303 303 303 303 302 301 301 301 300 300 301 302 304 305 305 304 304 304 305 305 305 305 304 303 301 301 300 300 299 297 296 295 294 293 293 293 293 293 292 292 293 293 293 294 293
292 292 293 292 293 293 293 293 293 293 293 294 294 294 295 295 296 297 297 297 297 297 297 297 297 297 297 297 298 299 300 300 301 301 302 303 303 303 303 303 303 303 303 302 302 302 302 301 300 300 302 303 304 304 304 304 305 305 305 305 305 304 302 301 300 300 299 298 297 295 294 293 293 293 293 293 292 292 293 293 293 293 293 293 293
291 291 292 292 292 292 292 292 293 293 294 294 294 294 294 294 294 295 296 296 297 297 297 297 297 297 297 296 297 297 298 299 300 300 301 301 302 302 302 302 302 303 303 303 303 302 301 300 299 300 302 304 304 304 304 304 304 304 305 304 303 302 301 300 299 298 297 296 295 294 293 293 293 293 292 292 292 293 293 293 294 293 293 293 293
Wind_Speed
27 26 26 26 25 24 24 26 28 27 25 23 22 21 21 20 20 19 17 14 11 7 2 1 3 4 6 8 8 7 6 4 3 3 4 5 5 6 7 6 5 3 3 3 3 3 3 5 6 8 9 10 9 9 10 10 9 9 11 12 13 13 10 8 9 7 6 5 5 7 9 7 7 7 8 8 9 10 10 11 11 10 10 10 12
27 26 26 27 26 25 26 28 28 27 26 24 22 21 20 20 21 20 17 14 11 6 2 2 3 4 6 7 7 6 5 4 3 3 4 5 6 6 6 4 3 3 2 2 2 2 2 3 4 5 7 9 8 8 8 8 8 8 9 11 12 12 10 8 9 8 7 6 4 6 9 9 10 10 9 10 10 11 12 13 13 13 12 11 11
28 28 28 28 27 25 26 28 28 27 24 22 21 21 21 21 22 22 18 14 12 8 4 4 3 4 6 6 6 5 5 5 5 4 4 4 4 4 4 3 2 2 2 1 2 2 2 2 3 3 4 5 6 6 7 7 7 8 8 9 11 11 10 9 9 10 9 8 5 6 8 9 10 11 11 11 11 12 12 12 14 15 14 14 13
30 30 30 29 28 26 26 27 28 28 25 21 21 23 24 24 24 23 19 14 12 9 7 7 6 5 7 7 5 4 5 5 5 5 4 3 4 4 3 3 2 2 2 1 1 2 3 3 3 3 2 3 3 4 4 4 5 6 7 8 9 10 10 9 10 11 11 9 6 6 7 7 8 9 9 9 10 11 11 11 13 14 13 13 14
31 31 32 31 30 29 28 28 29 29 27 23 21 24 25 25 25 23 19 15 13 10 10 9 7 7 8 6 4 4 4 4 4 5 6 6 6 6 6 4 2 1 1 1 2 3 3 4 4 4 3 3 2 1 1 1 1 3 5 7 8 9 10 11 10 11 13 12 9 7 6 6 6 6 6 5 6 7 7 8 10 12 11 10 12
31 31 32 31 30 30 29 30 30 30 29 24 20 23 25 24 24 22 19 17 14 12 12 11 9 8 6 4 2 3 3 3 3 4 6 7 7 8 8 7 5 3 3 2 1 1 1 1 2 2 3 2 1 1 2 2 1 1 2 3 5 7 8 9 9 10 12 11 10 10 8 6 5 5 4 3 3 3 2 3 4 6 7 7 8
30 31 33 32 31 31 31 32 31 29 28 23 19 22 23 22 22 21 19 17 15 14 14 13 10 8 5 2 1 1 2 2 3 3 4 5 6 7 7 7 5 4 4 3 1 2 3 3 3 3 3 3 4 4 4 5 4 4 3 1 1 3 4 6 7 9 10 10 9 10 10 8 6 5 4 3 3 3 4 3 3 4 5 5 6
30 31 33 33 32 33 33 32 30 27 25 21 20 21 21 21 21 20 20 18 17 16 15 13 11 8 6 4 2 1 1 2 2 3 4 4 5 5 6 6 5 4 3 3 2 2 3 3 4 4 4 4 5 5 5 4 3 2 2 3 3 2 1 2 4 6 7 8 8 9 8 7 5 4 3 3 2 4 7 5 3 2 2 4 5
29 32 33 34 33 33 33 30 29 26 24 22 22 23 23 23 22 21 20 19 19 18 16 14 11 8 6 4 3 2 3 3 3 4 4 4 4 5 5 5 5 4 3 3 3 2 2 3 4 4 3 3 3 3 2 2 2 2 2 2 4 5 4 3 2 2 2 4 5 7 8 6 6 5 3 3 3 6 10 8 5 3 1 1 1
29 30 32 33 33 32 31 29 27 26 25 26 27 26 24 23 23 23 22 21 21 19 16 15 12 9 6 4 3 4 4 4 4 4 4 4 4 5 5 5 5 5 4 4 3 3 3 4 5 4 2 1 1 1 2 2 3 2 1 3 5 6 7 7 6 5 4 2 1 2 5 4 5 5 3 2 2 5 10 12 8 5 5 6 4
28 29 30 31 31 30 29 28 26 27 29 31 31 28 25 24 25 26 24 23 23 20 18 16 13 9 7 4 3 5 5 4 4 4 4 4 5 5 4 4 4 4 4 3 3 3 4 5 6 4 3 3 3 3 3 2 1 2 4 6 6 7 7 8 7 8 7 5 6 5 3 2 3 5 5 4 3 5 8 10 9 8 9 9 9
26 28 28 29 30 30 30 28 26 29 32 33 33 30 27 26 25 26 26 24 23 21 19 17 13 9 8 5 4 5 5 4 4 4 4 4 5 4 3 3 4 4 4 3 3 3 5 6 6 6 7 7 7 7 7 7 7 8 8 8 7 7 7 8 7 8 7 6 7 7 5 5 6 6 5 3 3 3 4 6 7 6 9 11 11
23 24 24 27 29 30 30 29 27 29 33 34 33 31 29 26 23 25 27 25 23 22 19 16 13 11 10 7 5 6 6 5 4 3 3 3 3 3 3 3 3 4 3 2 2 3 4 5 6 7 8 8 8 7 7 8 8 9 9 9 9 9 10 9 9 9 9 7 7 6 5 4 4 3 3 3 3 2 2 5 7 7 8 10 9
20 18 16 17 23 28 29 27 25 27 30 33 32 31 30 27 24 27 28 26 24 22 19 15 13 13 11 9 7 7 7 5 4 2 1 1 2 2 2 3 3 3 3 3 3 3 3 4 5 5 6 6 6 6 6 7 7 8 8 8 8 9 10 10 10 10 9 9 9 8 7 6 5 5 5 5 6 5 5 5 7 9 8 7 7
19 20 17 11 13 20 25 25 24 25 27 31 31 30 30 28 28 29 26 23 22 19 17 15 14 13 12 10 9 8 8 6 6 3 2 2 1 2 2 3 3 2 3 4 4 4 4 4 3 2 4 4 5 5 6 7 8 8 8 8 8 9 9 9 9 9 10 10 10 9 9 8 8 8 8 7 7 7 6 5 6 9 10 9 8
13 18 18 13 12 14 19 23 25 26 26 29 29 29 29 29 29 27 21 17 18 16 16 17 17 16 13 12 12 10 9 8 8 6 5 4 3 2 2 2 2 2 2 3 4 5 5 5 3 2 2 3 4 6 7 9 10 10 11 10 10 11 11 10 11 11 11 11 11 10 9 9 9 10 10 10 10 9 8 6 4 6 10 11 10
9 10 12 15 19 18 18 22 25 26 26 27 28 29 29 27 25 20 16 14 17 17 18 20 21 20 16 14 13 12 10 10 9 8 6 5 6 4 2 1 2 1 2 2 3 4 5 5 4 3 2 3 3 5 6 8 10 11 12 12 12 13 13 13 13 12 13 12 12 12 11 11 12 12 12 12 12 12 11 9 7 5 6 9 10
10 12 13 16 20 19 18 21 23 24 25 26 26 27 27 26 23 16 12 15 17 18 19 19 22 23 19 15 14 13 12 11 11 9 8 8 8 6 5 4 3 3 2 2 2 3 3 3 4 3 3 2 2 3 4 5 7 9 10 11 11 12 12 12 13 12 13 13 12 11 11 11 12 11 11 12 12 12 12 11 10 9 6 6 8
12 15 15 14 14 14 13 16 18 20 21 22 22 23 23 23 22 18 17 17 16 18 19 18 19 22 21 18 16 15 14 14 14 13 12 12 10 9 8 7 6 5 4 3 3 2 2 2 2 3 2 2 2 2 2 3 4 5 6 7 9 10 9 10 10 10 10 10 10 9 9 9 9 9 9 9 10 10 10 9 10 10 9 8 7
14 14 12 9 8 7 7 8 12 14 17 18 19 20 20 20 19 17 16 14 13 14 17 18 19 20 22 21 19 18 17 17 17 15 15 14 13 12 12 9 8 7 5 5 4 3 3 2 2 2 2 1 1 1 1 1 2 2 2 3 4 6 6 6 7 7 7 7 7 7 6 6 7 7 7 7 7 7 7 7 7 7 7 8 7
13 12 8 6 5 5 4 5 6 9 12 14 15 16 16 16 16 14 13 12 11 12 15 17 19 20 23 24 22 21 20 19 18 16 16 15 13 14 14 11 10 9 7 6 5 4 4 3 3 2 2 2 2 2 2 2 1 1 0 0 0 1 2 3 3 3 4 4 4 4 4 4 5 5 5 5 5 5 5 5 5 5 5 5 5
12 10 8 7 6 6 6 5 4 4 5 6 7 9 10 11 9 8 8 9 9 11 13 15 18 21 24 26 24 22 22 21 19 17 17 17 15 16 16 13 12 11 9 8 7 6 5 5 4 3 3 3 4 4 3 3 2 2 1 1 2 3 2 2 2 1 1 2 2 2 1 2 3 3 3 4 4 4 4 5 5 5 5 5 5
12 10 8 7 7 7 7 6 5 4 4 4 3 3 4 4 3 4 5 7 8 9 10 13 17 20 23 25 24 24 24 24 21 19 19 19 18 18 17 15 14 14 12 10 9 8 7 6 5 5 4 3 4 6 6 5 3 2 1 1 2 2 3 3 3 3 3 2 2 2 1 1 2 2 2 3 3 4 4 5 5 5 6 6 6
10 9 8 7 7 7 7 7 6 5 4 4 4 4 4 3 3 5 6 6 7 7 8 11 15 19 21 23 24 24 24 26 25 21 21 21 20 19 18 17 16 16 15 12 11 10 9 9 8 7 6 6 6 7 7 7 5 3 2 2 2 2 2 3 3 4 4 4 4 3 2 1 0 1 1 2 2 3 4 5 6 7 7 7 8
8 7 6 5 6 6 7 7 6 5 5 4 4 4 4 4 5 5 6 6 6 6 7 10 13 16 17 19 23 24 24 27 27 23 22 21 20 20 19 18 18 18 16 14 14 13 13 12 12 11 11 10 10 9 10 12 10 6 5 4 4 3 3 3 3 4 4 4 5 4 4 2 2 1 1 1 2 2 3 5 6 7 8 8 9
6 6 5 5 4 4 5 5 5 5 4 4 4 4 4 4 4 4 4 5 5 5 7 8 11 13 14 17 21 22 23 26 26 24 23 21 20 21 20 19 19 19 17 15 15 15 16 16 15 14 15 15 15 14 15 17 16 12 9 8 8 7 7 7 7 6 6 6 5 5 5 4 3 3 3 4 4 3 3 5 6 8 8 9 9
6 6 5 5 5 5 5 4 4 3 2 2 3 4 3 3 2 2 1 2 2 2 3 5 8 10 13 16 18 20 23 24 23 22 22 21 20 20 20 21 21 22 21 21 20 18 16 17 17 17 18 19 18 18 18 18 17 16 13 12 12 11 10 11 12 11 11 10 8 8 7 6 5 5 5 6 6 6 6 6 7 8 9 10 11
6 6 6 6 6 6 5 4 4 3 3 3 3 3 2 1 1 1 1 2 1 2 2 3 5 7 10 13 15 18 22 23 21 19 20 21 20 19 19 21 21 20 21 23 23 21 19 19 19 20 22 21 19 19 18 16 15 16 15 14 14 14 14 14 14 15 15 14 13 11 10 10 9 8 8 8 8 8 9 9 8 9 10 11 11
5 5 6 7 6 5 4 4 4 4 4 4 4 4 2 1 2 1 2 2 2 2 2 2 3 5 9 11 13 14 17 20 21 19 19 20 21 20 20 20 20 19 20 21 22 22 23 24 22 21 21 21 20 20 18 15 14 15 16 17 18 18 17 17 17 17 17 16 16 15 14 14 13 13 13 12 11 11 11 11 11 10 11 11 9
3 2 3 4 4 4 4 4 4 4 4 4 5 5 4 1 2 2 3 3 1 1 1 1 2 3 6 9 11 12 15 18 20 20 19 19 19 20 19 19 19 20 19 19 19 20 22 23 22 22 21 22 21 19 15 14 15 16 18 20 21 19 18 18 18 18 17 16 16 16 16 16 17 17 18 16 15 14 14 13 14 13 12 10 7
5 3 2 2 3 4 4 4 4 4 4 4 4 4 4 3 1 2 3 3 3 3 3 3 3 3 5 8 9 11 12 14 17 19 20 18 18 18 17 17 18 19 18 17 17 19 20 20 20 20 19 19 16 14 12 12 14 16 17 18 18 18 18 18 17 17 17 17 17 17 18 19 19 20 21 20 19 18 17 16 16 16 14 12 9
11 8 6 4 4 4 4 4 4 4 3 3 2 2 2 2 2 1 0 1 2 3 4 4 4 4 5 7 8 10 11 12 13 15 17 17 18 17 17 17 17 18 17 16 14 14 13 13 13 13 13 12 10 9 9 10 10 11 12 12 13 14 15 15 15 15 15 17 18 19 20 21 21 21 22 23 22 20 19 18 17 16 15 13 11
16 14 12 11 9 8 6 5 4 4 3 2 2 2 2 2 3 3 3 2 1 1 2 3 3 3 5 6 8 10 11 12 12 14 15 16 16 17 16 16 15 14 13 12 10 9 8 9 9 8 7 7 7 7 8 7 7 7 8 8 9 10 11 12 12 12 13 14 15 16 17 19 20 21 21 22 23 21 20 19 18 17 16 14 12
15 13 13 12 12 12 11 9 7 5 5 4 2 3 3 3 2 1 1 2 2 2 1 1 2 3 4 6 7 8 9 11 12 13 12 12 13 12 12 11 11 10 9 8 7 7 7 7 7 6 6 6 7 8 8 8 9 9 9 9 9 10 11 11 12 12 13 13 13 14 15 15 17 18 18 19 21 21 21 20 19 18 16 15 14
15 12 9 7 7 8 9 9 8 6 5 4 3 3 4 4 4 4 3 1 2 2 2 2 3 3 4 5 6 7 8 9 10 11 10 9 9 9 9 8 8 7 6 6 6 6 7 7 8 9 9 10 10 11 10 10 10 10 10 10 10 11 11 12 12 13 13 14 14 14 15 15 14 14 14 17 20 21 21 20 19 18 16 15 15
17 15 13 10 6 5 4 4 3 2 1 3 3 3 4 5 5 5 5 5 5 4 4 5 6 5 5 5 5 6 7 7 7 7 7 7 7 8 8 8 7 7 7 7 8 8 9 11 11 12 12 12 12 11 11 10 10 9 9 10 10 11 11 11 11 11 11 12 13 14 15 14 14 12 12 15 18 20 20 19 18 17 16 15 16
13 13 13 12 10 8 6 5 6 6 5 5 5 5 5 5 5 5 5 6 6 6 6 8 9 8 7 7 7 7 7 8 7 7 7 7 7 7 7 7 8 8 8 9 9 10 10 10 11 11 12 12 11 11 11 10 10 9 9 9 10 11 12 12 11 10 10 10 11 12 12 12 11 9 10 14 18 19 19 18 17 16 16 16 17
9 9 9 8 8 8 8 8 9 9 9 8 8 9 9 7 6 5 5 5 6 6 7 8 9 9 9 9 9 9 8 7 7 7 8 9 9 8 9 8 8 8 7 7 7 6 6 7 7 9 10 11 11 11 11 11 11 10 9 10 11 12 13 13 13 12 9 8 8 8 7 7 6 6 9 14 17 18 17 17 16 16 16 17 19
9 10 10 10 9 8 8 9 9 9 10 9 9 10 11 12 12 11 11 10 9 8 8 8 9 10 10 8 8 9 10 9 9 8 9 10 10 10 9 9 8 8 7 6 5 5 6 6 7 9 10 11 13 13 14 14 13 12 11 11 11 12 13 13 13 12 11 9 7 6 5 5 5 7 11 14 16 16 16 16 16 16 17 19 20
12 12 13 13 13 13 12 12 12 12 13 12 12 12 12 13 13 14 16 16 15 13 12 10 10 12 13 11 9 9 10 10 10 9 9 10 10 10 10 10 10 9 9 7 6 7 8 8 9 10 10 11 13 14 15 15 15 14 13 12 11 12 12 12 12 11 10 9 8 6 6 6 8 11 14 15 16 16 16 16 16 17 18 20 22
14 15 16 17 17 17 16 16 16 17 17 18 17 17 16 16 15 14 15 15 16 17 17 17 17 17 19 18 17 17 17 17 17 17 16 15 14 14 13 13 13 12 11 10 9 9 10 10 10 11 11 12 12 13 13 14 14 13 12 11 10 10 10 10 9 9 8 8 8 7 7 8 10 12 14 16 16 16 15 15 17 19 20 22 23
16 17 18 19 20 20 20 20 20 20 21 21 22 22 21 21 20 18 17 16 16 17 18 19 20 21 22 22 21 21 20 20 21 22 21 21 21 19 18 16 15 14 13 12 11 10 10 10 11 12 13 13 13 13 13 12 11 11 10 8 8 8 8 8 7 7 6 7 8 9 9 10 11 13 14 16 16 16 15 16 19 21 22 24 26
20 20 20 21 22 23 23 23 22 22 22 22 23 24 23 23 23 23 22 21 20 20 19 19 19 20 21 21 20 19 18 18 20 20 20 21 22 21 20 18 17 16 14 13 12 11 11 11 12 12 13 15 14 13 12 11 10 9 8 8 7 7 8 8 7 7 8 9 10 10 10 12 13 13 14 15 16 16 17 19 21 23 24 26 27
22 23 23 23 24 25 25 26 25 24 24 23 23 24 25 25 24 23 23 24 23 23 23 23 22 21 21 21 21 21 21 21 22 22 22 22 22 22 21 21 19 18 16 14 13 12 12 13 13 14 13 14 14 12 10 9 7 7 7 8 7 8 9 9 9 10 11 12 11 10 11 13 13 14 15 16 17 19 20 21 23 23 24 25 25
24 24 25 25 26 27 28 28 27 26 25 24 22 22 24 25 24 23 24 25 24 24 24 24 24 24 24 23 23 23 23 23 23 23 23 23 23 23 22 21 20 18 17 15 14 14 14 14 14 14 13 13 12 12 10 9 7 7 7 8 8 9 11 11 10 11 11 11 11 11 12 13 13 14 15 17 18 19 20 21 22 22 22 23 23
28 28 28 28 29 29 30 30 30 28 26 25 23 23 24 25 25 24 25 25 25 25 24 24 24 24 24 25 25 24 23 23 23 23 22 22 22 22 21 20 19 18 17 16 15 14 14 14 13 12 12 12 12 12 12 11 10 9 8 8 9 10 11 11 11 11 10 10 10 11 12 12 13 14 15 16 17 18 19 19 20 20 21 22 23
32 32 31 31 31 32 32 32 32 31 29 27 27 26 26 26 26 26 26 27 28 27 27 26 25 24 24 24 25 25 24 23 24 24 25 24 23 23 22 21 20 19 18 17 16 15 14 14 13 14 14 14 14 13 13 13 12 10 8 8 9 11 11 11 11 11 10 10 10 11 12 12 13 14 15 16 16 16 17 18 19 20 20 21 22
31 30 31 31 31 32 32 33 34 34 32 32 31 30 29 28 28 28 27 27 29 29 29 29 28 27 25 24 24 24 24 23 24 25 26 26 26 26 25 24 23 22 21 19 17 15 14 13 14 16 17 16 15 14 13 12 12 10 8 8 9 11 12 11 11 10 10 10 10 11 11 12 13 13 14 15 15 16 17 18 18 18 19 20 21
30 30 31 31 32 32 33 33 33 33 34 34 35 34 34 33 32 30 28 28 28 29 30 30 30 29 29 28 26 24 23 22 22 23 23 24 26 27 26 25 23 22 21 20 18 16 14 13 13 15 15 15 14 13 11 11 11 10 10 10 11 11 11 10 9 9 9 10 11 10 11 11 12 13 13 14 15 15 16 16 17 17 18 19 20
29 29 28 28 27 27 28 29 30 31 31 33 34 34 35 35 35 34 32 31 30 29 29 30 30 30 30 30 29 28 26 23 22 21 21 22 22 23 23 21 20 19 20 20 19 18 16 14 13 14 13 12 11 11 10 11 12 12 12 12 12 11 10 9 9 10 11 11 11 10 10 11 12 13 13 14 14 14 14 15 15 17 18 19 20
23 22 22 21 21 22 23 25 25 25 26 27 28 29 30 31 32 34 34 34 34 32 31 30 29 29 29 29 29 30 29 27 24 22 21 21 21 21 20 20 20 20 20 20 19 18 16 13 13 14 14 13 13 13 13 13 13 13 13 13 12 10 9 9 10 10 10 10 9 9 10 11 11 12 12 12 12 12 13 14 15 16 18 19 20
Wind_Direction
202 204 206 206 203 199 193 187 189 194 194 196 201 200 197 192 191 193 193 198 201 190 186 249 289 318 325 326 320 315 319 319 315 306 305 311 312 320 324 322 331 339 335 320 299 287 256 240 239 235 233 235 231 228 236 240 237 243 249 250 250 251 247 234 226 229 243 253 242 223 218 221 231 242 250 257 263 265 268 264 256 248 242 239 240
204 207 208 207 204 196 193 194 195 197 199 201 203 201 200 197 195 198 200 203 203 194 192 243 283 307 316 323 318 311 312 310 301 295 298 298 301 310 313 316 329 341 348 341 318 300 257 235 234 232 232 235 231 224 224 229 231 235 239 242 249 254 255 243 229 223 232 241 238 226 226 230 236 244 250 254 257 259 263 264 259 248 239 239 243
206 209 207 206 205 199 197 200 201 202 204 206 208 207 206 201 199 204 208 206 201 193 190 210 243 281 291 299 301 301 307 308 300 297 297 293 307 316 311 310 309 322 335 333 309 277 259 250 235 230 230 230 227 221 219 221 228 238 243 243 246 252 253 246 231 224 232 240 235 225 229 234 240 245 248 251 254 256 258 261 258 250 248 251 248
206 207 206 203 203 202 202 204 206 207 207 208 211 212 209 205 204 207 210 207 203 196 192 204 221 248 263 268 275 287 298 307 308 310 316 319 339 349 336 315 284 291 308 282 266 256 253 254 247 241 227 218 218 220 221 220 222 236 247 244 241 244 246 244 232 225 230 234 230 222 221 228 240 245 243 244 249 254 257 258 258 255 255 256 249
206 206 206 204 204 203 204 206 208 209 207 209 212 210 207 205 205 208 208 206 208 200 193 203 215 229 245 253 260 277 288 302 316 323 329 333 341 348 345 343 339 332 333 276 253 258 257 249 249 243 231 226 219 205 183 186 209 229 243 245 238 237 237 237 233 228 231 230 223 217 214 219 233 238 238 242 245 249 254 256 258 256 254 255 253
209 207 207 209 208 207 208 208 209 210 209 212 213 206 203 204 204 206 205 207 212 203 192 200 211 220 234 251 275 298 306 310 327 330 328 327 334 339 340 345 359 13 19 21 289 302 333 246 232 214 207 207 173 108 89 98 105 158 226 244 238 237 233 231 228 229 235 233 226 228 229 226 227 233 238 240 229 210 208 236 246 245 244 248 255
210 209 210 212 213 210 209 209 211 213 212 214 212 204 203 203 202 204 206 211 215 206 193 197 207 210 209 208 252 331 333 325 327 325 319 319 326 334 336 338 348 1 11 24 38 41 56 82 97 111 117 110 107 99 97 104 104 103 87 57 232 236 233 231 225 226 235 234 230 233 234 233 231 237 242 228 211 171 146 172 194 206 224 233 244
211 211 212 213 214 212 210 210 213 215 214 217 216 210 206 204 204 208 211 216 218 209 197 197 205 205 197 192 190 243 290 310 313 311 312 312 318 331 333 330 336 351 12 31 55 59 60 77 92 100 104 104 104 98 96 94 85 70 38 34 54 83 160 218 218 222 233 232 229 230 228 226 209 203 212 198 186 123 119 144 147 131 219 241 251
213 212 213 214 213 213 212 214 215 214 215 217 214 207 202 201 207 214 217 220 219 210 199 201 207 202 198 199 202 241 266 284 297 295 302 311 318 330 331 327 331 340 7 45 77 79 60 71 83 95 107 116 108 79 37 5 346 337 351 40 72 80 85 93 120 158 207 221 231 230 218 191 156 157 161 164 162 112 107 113 102 88 92 38 300
216 215 216 216 216 214 214 214 214 213 213 211 207 203 201 205 214 221 225 223 217 208 199 203 207 200 197 204 228 263 278 293 295 286 295 314 321 325 329 333 337 337 357 48 80 76 60 54 48 50 78 119 122 26 345 326 305 294 153 121 103 93 90 89 92 92 94 101 61 214 201 180 155 154 130 98 126 118 113 113 108 104 96 77 65
216 215 216 218 218 215 213 213 212 211 210 208 208 207 208 215 221 224 227 221 213 205 199 203 207 201 199 207 249 278 292 299 288 284 305 325 322 324 334 344 352 349 354 37 64 56 39 27 22 31 65 101 106 95 86 73 69 112 127 126 117 108 98 92 94 93 89 81 70 80 112 96 78 95 95 89 98 114 123 124 114 99 96 89 81
216 216 216 215 215 212 211 210 209 209 209 209 211 212 213 219 224 225 224 217 209 204 202 207 209 207 209 216 243 272 289 292 280 288 321 334 323 325 349 3 14 14 8 24 44 41 26 28 49 68 83 96 99 96 90 82 80 87 99 106 105 102 97 93 98 100 95 89 85 82 80 70 63 72 82 91 93 97 126 141 137 117 104 98 90
212 212 213 214 214 212 211 208 208 211 212 213 215 215 217 222 227 223 216 210 205 204 207 213 220 223 222 221 233 258 276 274 256 280 332 345 331 342 21 31 37 38 38 47 57 47 35 49 74 79 83 89 92 92 90 85 83 84 89 93 90 87 88 90 93 95 94 94 95 93 88 84 73 68 69 68 71 74 107 139 153 151 126 111 102
200 201 209 219 217 214 212 209 211 216 217 219 220 220 223 227 224 213 206 203 202 204 209 216 227 232 228 228 232 247 266 254 224 236 9 13 353 31 60 62 66 64 73 94 103 88 72 75 77 73 77 80 78 80 81 83 85 87 89 90 91 90 90 92 91 90 89 88 87 86 83 80 73 70 70 71 77 86 97 121 151 161 150 133 118
188 195 204 230 234 218 213 212 216 222 224 225 226 228 229 226 217 206 198 201 205 209 217 223 231 232 227 230 234 241 254 236 205 187 130 121 108 91 85 82 87 89 102 116 123 122 116 108 96 76 74 73 73 76 77 82 83 84 87 87 90 92 92 94 94 92 91 89 85 82 78 77 73 69 66 63 66 74 87 102 137 158 156 142 127
169 185 194 224 253 237 220 218 222 226 229 229 231 234 229 222 216 201 188 203 218 225 233 234 236 235 228 228 234 239 241 224 200 174 148 151 155 131 95 99 117 117 120 133 142 144 142 136 136 128 99 89 88 87 85 87 86 85 86 87 87 88 88 89 89 88 89 87 85 82 79 78 76 71 67 65 64 66 73 82 107 156 163 149 132
133 164 179 210 238 243 232 227 228 230 233 233 234 235 228 224 218 193 181 212 228 235 243 242 241 238 228 225 233 240 237 219 194 172 168 175 163 154 182 200 167 155 151 155 160 164 162 158 159 165 153 130 113 105 98 94 94 93 93 91 89 89 90 90 90 89 89 87 84 84 83 81 78 75 72 70 68 67 69 76 84 113 156 163 151
137 179 192 212 236 250 243 236 237 237 239 241 239 235 230 228 224 214 229 243 239 241 243 246 248 242 229 223 231 238 230 208 188 178 183 186 177 177 205 221 207 194 191 180 185 190 179 174 176 182 189 175 141 123 109 101 100 100 101 101 98 96 96 96 97 96 94 91 89 87 85 82 79 77 75 73 72 70 71 76 82 87 104 149 163
158 198 219 230 245 258 251 242 244 244 245 246 242 238 235 233 234 246 261 256 248 246 240 243 251 245 233 226 229 231 221 205 197 195 195 203 217 216 209 220 218 205 203 192 191 195 186 182 180 183 194 192 168 136 118 105 100 98 101 106 105 105 103 100 101 101 98 96 92 87 81 77 75 73 73 75 75 73 74 76 80 87 95 107 130
171 196 217 225 229 240 234 230 237 239 242 243 241 238 236 235 242 255 261 251 242 237 235 242 247 241 230 222 224 223 212 207 207 208 210 216 223 211 204 218 220 210 213 205 197 200 199 200 195 194 204 197 194 176 150 124 112 104 98 105 109 111 112 108 106 106 103 101 94 87 79 72 71 67 66 69 71 71 69 68 71 77 87 96 104
165 171 178 182 182 182 176 184 202 215 228 234 236 238 240 245 253 259 260 255 241 226 228 236 238 234 224 219 222 218 208 209 212 211 215 215 211 207 207 217 219 212 210 204 202 206 206 215 217 224 245 243 247 241 226 229 209 198 240 289 317 100 113 106 106 111 110 104 95 91 88 80 77 75 72 70 68 66 61 54 51 47 49 59 70
155 154 155 160 151 138 131 133 139 156 188 207 219 230 238 249 256 250 242 242 237 227 223 225 228 227 223 222 226 218 211 215 215 212 213 209 208 212 211 213 219 216 209 204 206 207 209 219 220 229 255 272 281 279 267 259 251 254 271 294 310 312 322 349 6 17 70 84 71 60 74 82 82 84 82 80 75 68 59 49 40 31 25 21 16
154 149 144 140 132 127 123 121 121 120 119 123 141 169 191 220 232 222 221 221 224 225 219 220 221 221 225 231 232 225 221 222 219 218 217 212 212 215 213 214 220 221 218 216 218 218 220 225 224 225 239 264 286 290 289 281 266 267 293 329 332 326 324 326 329 327 325 331 349 355 352 51 78 79 76 77 72 61 49 38 27 17 9 4 357
141 134 129 123 123 121 119 122 128 132 131 128 129 136 143 164 206 223 229 228 230 230 224 222 220 221 229 234 233 233 230 223 220 223 222 218 220 222 219 219 221 223 225 228 232 234 240 244 242 240 244 253 265 275 279 276 273 284 300 316 334 332 331 328 324 322 316 313 315 316 304 278 148 74 59 55 55 48 33 19 8 360 353 347 342
147 141 137 132 127 118 115 120 125 128 130 129 131 140 148 167 200 222 235 239 243 246 239 229 222 223 227 230 234 239 233 222 221 224 223 222 225 226 222 221 225 229 235 245 248 247 251 252 250 256 265 267 263 262 265 268 274 280 279 283 290 294 303 309 310 313 312 315 319 317 309 288 260 268 299 320 333 4 12 1 352 346 340 335 334
163 160 158 159 154 142 136 131 128 127 124 121 127 136 146 162 181 200 223 238 246 252 246 229 217 219 225 230 236 237 227 220 221 224 223 224 228 229 223 221 229 236 240 249 253 250 249 249 251 260 270 273 268 266 269 271 273 272 269 273 276 277 283 285 285 288 288 291 298 302 305 299 281 273 274 282 287 289 304 324 335 338 336 336 334
167 171 174 181 180 173 165 149 140 135 125 118 119 123 134 149 157 159 206 259 265 243 226 213 209 215 226 232 235 231 222 219 221 223 223 225 231 234 229 228 237 244 242 241 244 248 250 251 253 255 260 266 267 267 272 273 271 269 270 272 272 271 273 275 276 277 276 276 277 278 281 282 280 278 274 276 279 277 280 296 314 326 330 333 331
177 182 186 190 188 184 172 156 148 138 140 137 118 108 108 123 133 104 4 354 34 116 154 194 212 220 229 232 234 230 225 225 228 227 224 226 233 240 239 236 240 247 245 240 241 247 254 258 259 258 258 260 262 267 270 270 269 270 273 276 276 274 271 269 269 270 270 271 271 271 271 269 268 267 265 266 268 270 275 281 287 297 305 309 311
176 183 190 192 191 183 161 145 139 130 129 125 116 114 104 338 306 318 335 339 20 86 128 190 215 226 233 234 233 230 230 232 235 232 228 231 236 241 243 241 243 248 249 247 249 254 257 258 260 261 258 256 260 267 269 271 273 272 271 274 276 274 270 266 264 265 268 268 267 268 269 268 266 263 260 260 260 261 266 270 273 276 281 285 290
136 158 178 182 182 172 150 133 120 108 100 97 102 112 119 128 281 283 288 293 300 303 276 204 176 202 221 228 230 230 231 234 234 233 233 236 239 240 243 244 247 253 255 255 258 261 259 258 259 260 257 257 263 268 268 273 275 269 267 270 271 270 266 262 259 258 258 258 258 260 264 266 267 266 265 264 264 263 263 265 267 268 269 271 280
87 100 133 155 159 155 146 134 119 104 93 88 84 87 98 104 134 235 254 263 253 249 253 236 208 203 214 223 229 231 232 233 233 234 237 240 241 241 244 247 250 256 259 258 260 260 258 256 256 255 253 256 260 262 263 265 264 263 265 266 266 265 263 261 260 258 256 254 252 251 254 258 261 263 265 266 266 266 265 266 267 266 265 265 276
82 88 98 108 119 130 136 141 140 135 124 114 109 91 66 51 51 58 276 265 252 249 249 244 235 222 222 227 228 227 227 227 229 232 234 237 239 241 245 249 251 253 253 250 250 250 246 241 241 243 245 248 247 244 245 249 253 260 264 264 265 266 265 265 266 264 263 261 257 253 252 253 254 258 263 266 266 265 263 261 261 262 265 266 275
79 81 85 87 89 94 101 119 145 153 143 140 159 145 101 57 36 34 44 61 346 289 269 256 248 232 225 226 226 225 221 220 223 227 229 230 234 236 237 237 237 236 237 236 235 233 226 221 223 227 233 238 236 236 242 253 265 273 274 275 276 273 272 274 273 271 270 267 266 263 260 256 254 255 259 265 266 262 257 256 259 264 271 274 281
77 81 83 81 81 83 82 85 102 121 115 109 152 172 160 151 138 91 66 52 10 333 289 250 241 227 212 206 211 214 210 208 207 208 212 214 214 215 215 214 217 220 225 227 227 227 225 221 225 236 246 253 253 254 261 271 279 286 291 293 290 286 283 282 278 278 277 274 273 273 270 265 258 253 256 263 265 259 253 255 262 269 276 281 291
62 63 63 63 75 80 70 66 76 90 100 107 141 181 186 187 181 181 194 245 317 290 258 243 243 251 245 228 222 219 211 205 202 200 200 199 198 199 200 201 203 207 216 227 234 241 247 253 261 268 271 272 271 269 269 271 276 287 297 300 299 296 293 290 285 282 279 276 273 269 266 264 258 251 253 260 261 256 254 258 265 272 280 288 298
50 46 40 31 30 39 33 27 32 37 164 180 190 198 204 212 214 218 232 253 267 266 252 234 228 239 255 252 245 240 231 222 220 220 217 211 204 200 197 198 202 212 226 238 246 253 260 264 266 268 267 267 268 269 268 268 273 286 298 306 310 309 307 305 302 296 289 282 275 268 262 258 252 247 248 252 252 252 255 260 266 275 284 292 298
47 46 44 39 32 27 15 355 341 323 296 273 259 251 241 225 216 218 224 233 243 247 239 229 225 229 237 239 239 245 246 242 239 234 226 218 210 206 212 222 231 236 238 239 242 245 249 253 254 257 259 259 261 262 263 266 272 282 295 304 311 314 315 315 314 309 300 287 276 268 260 253 251 249 243 240 243 247 253 260 268 277 284 288 294
26 20 21 24 24 21 12 356 346 336 326 313 288 275 268 251 234 232 228 220 222 224 219 216 218 220 223 225 227 230 233 236 237 232 224 222 221 226 237 242 237 232 227 226 229 229 232 241 249 255 260 262 263 265 265 267 270 275 283 293 302 308 311 313 316 316 307 291 276 269 262 257 259 251 236 233 238 245 254 264 273 279 283 287 294
356 349 344 343 342 342 341 336 331 325 324 321 305 290 281 269 261 260 258 254 249 240 227 221 222 222 221 221 224 229 230 231 235 237 234 233 234 237 241 236 227 226 229 231 232 231 236 248 256 260 264 264 264 265 266 268 269 270 274 281 290 299 304 308 314 318 318 311 303 298 297 286 260 236 230 235 243 254 264 273 280 286 291 295 300
327 324 322 321 319 318 316 314 313 310 310 311 308 302 295 285 277 270 266 265 261 249 236 230 230 229 227 227 226 230 233 233 237 239 233 231 235 238 239 236 233 239 247 251 250 247 249 256 262 268 273 273 271 269 268 268 267 266 267 272 280 289 296 302 310 316 320 320 316 310 300 284 263 248 244 248 256 266 275 282 289 297 301 302 303
312 309 308 306 303 303 304 303 305 304 302 302 301 299 297 294 288 281 277 274 266 255 245 242 239 235 234 237 241 245 244 241 243 246 243 241 244 245 244 244 244 248 254 257 258 258 260 266 273 282 289 290 286 281 275 272 267 262 261 266 272 277 283 293 305 313 313 311 307 297 285 276 272 268 265 265 267 271 277 288 298 303 302 299 296
303 302 303 301 298 297 297 296 298 298 297 297 296 295 294 292 289 284 281 279 273 264 257 251 248 244 241 241 245 250 250 246 245 245 243 240 241 243 244 243 244 249 255 257 258 262 268 275 284 294 300 301 297 289 283 279 272 263 259 260 263 268 277 288 298 304 304 300 295 290 284 278 276 275 274 274 272 272 279 292 299 299 295 291 290
304 303 302 300 298 296 294 294 294 295 295 295 294 291 289 287 284 281 279 276 273 270 265 259 254 248 243 240 239 242 245 245 243 240 237 233 232 234 235 238 244 251 255 254 256 263 270 277 285 294 300 303 301 295 288 283 275 266 261 259 260 266 275 280 282 285 289 290 288 287 285 281 280 280 283 285 284 283 287 292 293 292 290 289 290
304 303 302 302 300 298 295 294 293 293 293 292 291 290 287 282 279 276 273 271 270 269 267 264 260 254 247 243 242 242 242 242 241 241 240 237 234 234 234 238 244 248 248 249 256 264 270 276 283 289 293 298 299 296 289 284 284 278 269 265 264 265 266 269 274 278 280 281 281 283 285 285 286 287 286 287 288 289 291 292 292 290 290 291 293
299 298 298 297 296 295 294 292 291 292 291 288 286 285 283 281 278 275 271 269 267 265 263 262 262 259 254 249 247 245 242 240 239 240 239 237 236 235 235 236 238 240 242 249 257 264 270 275 279 281 283 285 289 291 287 288 295 297 282 269 265 264 262 260 262 267 270 270 273 278 282 284 285 286 285 285 287 289 291 292 292 292 294 297 300
297 295 295 293 291 290 289 287 287 287 286 285 283 281 280 280 279 275 272 270 268 264 261 257 256 255 254 252 250 248 244 240 236 236 237 237 236 235 234 235 236 239 244 250 257 263 269 271 274 278 281 281 279 279 280 284 292 296 284 268 264 265 262 259 260 262 262 261 268 276 280 280 282 286 289 290 290 289 290 291 294 298 302 305 307
298 298 297 295 292 290 287 286 285 282 280 278 277 275 274 275 275 275 275 273 270 266 262 258 255 251 248 247 247 247 247 243 237 235 236 238 238 238 239 239 240 242 244 248 255 262 263 265 269 275 281 283 277 269 268 274 282 284 274 261 260 262 262 265 269 268 267 269 277 282 284 284 285 288 290 290 290 291 294 298 303 307 309 310 310
298 298 297 295 293 291 289 287 285 283 280 276 273 270 268 267 269 272 274 274 271 269 265 261 257 253 249 245 243 241 242 243 240 236 234 233 233 235 238 241 243 245 247 248 253 257 259 263 269 273 279 281 271 259 259 267 272 269 257 249 252 257 259 264 267 269 274 281 286 287 287 286 287 288 289 291 295 299 304 307 309 309 310 312 314
299 299 298 299 299 297 296 294 291 290 287 283 278 274 270 267 266 268 271 271 271 270 268 264 259 255 252 249 245 242 239 238 238 236 232 230 230 230 233 237 240 243 246 249 251 253 256 263 271 275 277 274 260 249 253 260 257 248 239 237 242 248 252 259 268 277 286 291 293 292 290 287 288 290 293 297 302 305 308 309 311 313 315 317 318
303 303 304 306 308 307 306 302 299 297 293 289 286 283 278 273 269 267 267 268 267 266 264 263 260 258 254 251 249 247 244 241 239 236 231 230 230 228 227 230 234 238 241 245 247 249 252 260 270 273 268 258 245 238 239 240 239 236 236 238 241 244 251 264 277 282 285 288 289 287 284 283 288 293 298 303 306 308 310 314 318 321 323 324 324
315 318 319 321 321 319 315 311 309 307 302 298 294 291 287 282 276 269 266 264 263 262 259 257 257 257 256 254 251 249 248 247 246 242 235 232 231 231 231 236 241 242 240 239 241 245 248 256 266 265 254 242 237 235 232 231 231 232 235 238 239 239 249 267 277 277 276 276 276 276 279 285 293 298 302 306 309 313 320 326 331 334 334 332 331